Eastsound, WA (98245)

7:03 AM PST on February 14, 2016 (GMT -0800)
Orcas Island | | Change Station
CLOSE
Current Station
Airport
Location: Eastsound,
Elevation: 30 ft
Nearby Weather Stations

Elev 30 ft 48.71 °N, 122.91 °W | Updated 8 minutes ago

Light Rain
Light Rain
46 °F
Feels Like 44 °F
N
6
Wind Variable Wind from South

Today
High -- | Low -- °F
--% Chance of Precip.
Yesterday
High -- | Low -- °F
Precip. -- in
Pressure 30.08 in
Visibility 7.0 miles
Clouds Mostly Cloudy 700 ft
Mostly Cloudy 2700 ft
Windchill 44 °F
Dew Point 46 °F
Humidity 100%
Rainfall 0.04 in
Snow Depth Not available.
7:21 AM 5:30 PM
Waxing Crescent, 42% visible
METAR KORS 141455Z AUTO 18005KT 7SM -RA BKN007 BKN027 08/08 A3008 RMK AO2 P0002
Pressure 30.08 in
Visibility 7.0 miles
Clouds Mostly Cloudy 700 ft
Mostly Cloudy 2700 ft
Windchill 44 °F
Dew Point 46 °F
Humidity 100%
Rainfall 0.04 in
Snow Depth Not available.
7:21 AM 5:30 PM
Waxing Crescent, 42% visible
METAR KORS 141455Z AUTO 18005KT 7SM -RA BKN007 BKN027 08/08 A3008 RMK AO2 P0002

10-Day Weather Forecast

Almanac

Astronomy

Feb. 14, 2016 Rise Set
Actual Time
Civil Twilight
Nautical Twilight
Astronomical Twilight
Moon
Length of Visible Light
Length of Day
Tomorrow will be .
, % of the Moon is Illuminated

Today's Extremes

State Highs State Lows

Community

WunderPhotos

Upload Photos

1,892,782 photos uploaded!

WunderBlog® & News

Nearby

Air Quality

  Air Quality AQ Index Pollutant
Not available.

Snow Depth

Station Depth Elevation

Earthquake Activity

City Distance Mag. Time & Date
Minimum magnitude displayed is 2.5.

Coastal Water Temperatures

Place Temperature

Stations

Nearby Weather Stations

Station Location Temp. Windchill Dew Point Humidity Wind Precip. Elev Updated Type
                   

Watches & Warnings

There are currently no watches in effect.